sat.trackr.live / text

‹ back to catalog

STARLINK-31724

NORAD 59554 · 2024-074W

PAYLOAD ACTIVE UNKNOWN

§ Identity

Operator
Country
US
Launch date
2024-04-18
Launch site
AFETR
Launch vehicle
Mass (kg)
RCS (m²)

Purposes: comms

External: N2YO · Heavens-Above · Gunter

§ Orbital elements

Epoch: 2026-09-21T18:42:22.158432Z

Period
94.27 min
Inclination
43.0033°
Eccentricity
0.0001536
Mean motion
15.27581285 rev/d
Perigee alt
482.0 km
Apogee alt
484.1 km
Semi-major
6,861.2 km
B*
3.3873e-5
RAAN
280.0806°
Arg perigee
271.8204°
Mean anomaly
88.2472°
Rev number
13,641

§ Raw data

STARLINK-317241 59554U 24074W   26264.77942313  .00000670  00000+0  33873-4 0  99912 59554  43.0033 280.0806 0001536 271.8204  88.2472 15.27581285136416

JSON: /api/v1/satellites/59554 · /tle

For live sub-satellite position, see the globe view (requires WebGL).

§ Visibility from observer

Set your observer location to see the next 7 days of passes ≥ 10°. The values pass through the URL so the page stays shareable.

No JS? Fill the form by hand. The geolocation button needs JavaScript.